Waarnemingen

Advertentie
Mijn weer
P11-B, Nederland (6203): temperatuur & dauwpunt: 17.07.2017 08:00:00 - 23.07.2017 08:00:00 (CEST)P11-B, Nederland (6203): windsnelheid & windstoten: 17.07.2017 08:00:00 - 23.07.2017 08:00:00 (CEST)P11-B, Nederland (6203): windrichting: 17.07.2017 08:00:00 - 23.07.2017 08:00:00 (CEST)P11-B, Nederland (6203): luchtdruk: 17.07.2017 08:00:00 - 23.07.2017 08:00:00 (CEST)P11-B, Nederland (6203): zicht: 17.07.2017 08:00:00 - 23.07.2017 08:00:00 (CEST)
Datum & Tijd tt [°C] td [°C] ff [km/u] ff [kn] fx [km/u] fx [kn] dd ppp [hPa] vv [km]
23.07.2017 08:00:00 16,8 11,6 29 16 36 19 ZZW 1009,8 10
23.07.2017 07:00:00 17,0 10,6 29 16 36 19 - 1009,8 10
23.07.2017 06:00:00 15,8 10,7 34 18 43 23 ZZW 1009,9 10
23.07.2017 05:00:00 16,7 9,9 24 13 29 16 ZZW 1010,1 10
23.07.2017 04:00:00 16,8 10,2 29 16 29 16 ZW 1010,1 10
23.07.2017 03:00:00 16,8 10,4 31 17 29 16 ZW 1010,1 10
23.07.2017 02:00:00 16,9 11,6 28 15 29 16 ZZW 1010,6 10
23.07.2017 01:00:00 17,0 11,8 24 13 25 14 ZZW 1011,0 10
23.07.2017 00:00:00 16,9 11,8 22 12 29 16 ZZW 1011,1 10
22.07.2017 23:00:00 17,5 12,0 21 11 22 12 - 1010,9 10
22.07.2017 22:00:00 17,2 12,3 11 6 14 8 ZZW 1011,1 10
22.07.2017 21:00:00 16,9 12,3 8 4 11 6 - 1010,7 10
22.07.2017 20:00:00 16,6 11,9 4 2 7 4 - 1010,6 10
22.07.2017 19:00:00 16,1 11,6 8 4 22 12 - 1010,6 10
22.07.2017 18:00:00 15,3 11,7 15 8 50 27 - 1010,7 10
22.07.2017 17:00:00 16,9 13,4 13 7 25 14 - 1010,4 10
22.07.2017 16:00:00 17,8 11,6 18 10 22 12 - 1010,5 10
22.07.2017 15:00:00 17,6 13,3 24 13 32 18 - 1010,9 10
22.07.2017 14:00:00 17,6 13,6 28 15 32 18 Z 1010,7 10
22.07.2017 13:00:00 17,6 14,6 28 15 32 18 Z 1010,2 10
22.07.2017 12:00:00 17,5 14,9 31 17 36 19 ZZW 1009,7 10
22.07.2017 11:00:00 18,6 14,2 34 18 36 19 Z 1009,3 10
22.07.2017 10:00:00 19,1 14,9 31 17 32 18 ZZO 1008,8 10
22.07.2017 09:00:00 19,1 15,1 28 15 29 16 ZZO 1008,8 10
22.07.2017 08:00:00 19,0 15,6 26 14 32 18 ZZO 1008,6 10
22.07.2017 07:00:00 19,2 15,0 28 15 32 18 Z 1008,1 10
22.07.2017 06:00:00 19,1 15,3 31 17 32 18 Z 1008,0 10
22.07.2017 05:00:00 18,9 16,3 34 18 36 19 ZZO 1007,7 10
22.07.2017 04:00:00 19,2 14,6 35 19 36 19 OZO 1007,8 10
22.07.2017 03:00:00 19,1 14,1 39 21 43 23 OZO 1008,1 10
22.07.2017 02:00:00 19,4 13,7 44 24 43 23 O 1008,3 10
22.07.2017 01:00:00 19,4 14,0 42 23 47 25 O 1008,6 10
22.07.2017 00:00:00 19,5 13,8 42 23 43 23 ONO 1008,8 10
21.07.2017 23:00:00 19,6 13,6 42 23 43 23 ONO 1008,8 10
21.07.2017 22:00:00 19,0 14,4 44 24 43 23 ONO 1009,1 10
21.07.2017 21:00:00 19,2 13,9 41 22 40 21 ONO 1009,4 10
21.07.2017 20:00:00 19,1 13,1 39 21 36 19 ONO 1009,7 10
21.07.2017 19:00:00 18,9 12,1 34 18 32 18 ONO 1010,2 10
21.07.2017 18:00:00 18,5 11,7 28 15 29 16 ONO 1010,9 10
21.07.2017 17:00:00 18,4 10,8 26 14 25 14 O 1011,6 10
21.07.2017 16:00:00 18,0 11,4 26 14 25 14 OZO 1012,2 10
21.07.2017 15:00:00 17,9 9,6 26 14 25 14 OZO 1012,7 10
21.07.2017 14:00:00 17,3 10,6 29 16 29 16 ZO 1012,8 10
21.07.2017 13:00:00 17,1 11,1 28 15 29 16 ZZO 1012,9 10
21.07.2017 12:00:00 17,3 9,9 24 13 25 14 ZZO 1013,0 10
21.07.2017 11:00:00 17,1 10,2 22 12 25 14 Z 1013,3 10
21.07.2017 10:00:00 17,0 11,5 22 12 25 14 ZZW 1013,2 10
21.07.2017 09:00:00 16,9 11,6 22 12 22 12 ZZW 1013,2 10
21.07.2017 08:00:00 16,8 10,9 21 11 22 12 ZZW 1012,6 10
21.07.2017 07:00:00 16,9 12,1 21 11 22 12 ZW 1012,5 10
21.07.2017 06:00:00 16,9 13,3 18 10 22 12 ZZW 1012,2 20
21.07.2017 05:00:00 17,2 12,9 22 12 25 14 ZW 1012,1 10
21.07.2017 04:00:00 17,4 13,0 28 15 32 18 WZW 1012,0 10
21.07.2017 03:00:00 17,6 13,2 31 17 36 19 ZW 1012,0 10
21.07.2017 02:00:00 17,6 13,3 37 20 36 19 ZW 1011,8 10
21.07.2017 01:00:00 17,9 13,5 22 12 36 19 ZZW 1011,3 10
21.07.2017 00:00:00 17,3 13,5 18 10 22 12 ZZO 1011,4 30
20.07.2017 23:00:00 16,8 12,1 18 10 22 12 Z 1011,3 10
20.07.2017 22:00:00 16,6 11,2 13 7 22 12 WZW 1011,2 10
20.07.2017 21:00:00 16,5 11,8 18 10 32 18 W 1010,5 32
20.07.2017 20:00:00 16,7 11,8 25 14 43 23 W 1009,5 34
20.07.2017 19:00:00 16,1 13,2 32 18 50 27 W 1008,4 22
20.07.2017 18:00:00 16,6 14,5 48 26 54 29 W 1007,3 10
20.07.2017 17:00:00 18,0 15,9 46 25 58 31 ZZW 1006,2 10
20.07.2017 16:00:00 18,6 16,4 46 25 47 25 ZZW 1006,0 10
20.07.2017 15:00:00 18,5 16,6 39 21 40 21 ZZW 1005,9 10
20.07.2017 14:00:00 18,7 16,5 39 21 40 21 ZZW 1005,8 10
20.07.2017 13:00:00 18,6 16,5 39 21 43 23 ZZW 1005,9 10
20.07.2017 12:00:00 18,6 16,8 29 16 36 19 ZZW 1006,2 10
20.07.2017 11:00:00 18,7 17,1 26 14 32 18 Z 1006,1 10
20.07.2017 10:00:00 18,7 17,5 18 10 25 14 Z 1006,2 7
20.07.2017 09:00:00 18,5 17,2 22 12 32 18 Z 1006,2 11
20.07.2017 08:00:00 18,6 17,0 29 16 32 18 ZZW 1005,8 10
20.07.2017 07:00:00 18,5 16,9 28 15 29 16 ZZW 1005,8 10
20.07.2017 06:00:00 18,4 17,0 26 14 32 18 ZZW 1005,7 9
20.07.2017 05:00:00 18,5 17,2 29 16 32 18 ZZW 1005,8 10
20.07.2017 04:00:00 18,7 17,2 34 18 32 18 ZZW 1006,0 10
20.07.2017 03:00:00 18,5 17,3 28 15 29 16 Z 1006,5 10
20.07.2017 02:00:00 18,6 17,3 22 12 25 14 Z 1007,0 10
20.07.2017 01:00:00 18,8 17,4 18 10 29 16 ZZW 1007,0 14
20.07.2017 00:00:00 18,9 17,3 28 15 25 14 ZZW 1007,2 10
19.07.2017 23:00:00 18,8 17,2 26 14 25 14 ZZW 1007,3 10
19.07.2017 22:00:00 18,9 17,1 22 12 22 12 Z 1007,1 10
19.07.2017 21:00:00 19,1 17,0 22 12 22 12 Z 1006,7 10
19.07.2017 20:00:00 19,3 17,1 24 13 25 14 Z 1006,6 10
19.07.2017 19:00:00 19,5 17,3 22 12 25 14 ZZO 1006,1 10
19.07.2017 18:00:00 19,6 17,3 22 12 22 12 Z 1006,3 10
19.07.2017 17:00:00 20,0 17,3 22 12 22 12 ZZW 1006,4 10
19.07.2017 16:00:00 19,7 17,4 22 12 32 18 ZZW 1006,7 10
19.07.2017 15:00:00 19,5 17,6 28 15 29 16 ZW 1006,7 10
19.07.2017 14:00:00 21,9 17,4 31 17 40 21 ZZO 1006,1 10
19.07.2017 13:00:00 20,7 17,4 35 19 32 18 ZO 1006,0 10
19.07.2017 12:00:00 20,0 17,2 26 14 29 16 OZO 1006,5 10
19.07.2017 11:00:00 19,6 16,8 28 15 36 19 O 1007,0 10
19.07.2017 10:00:00 19,3 16,5 32 18 40 21 O 1006,4 15
19.07.2017 09:00:00 19,1 16,2 41 22 47 25 O 1007,0 10
19.07.2017 08:00:00 19,0 16,0 50 27 50 27 O 1007,1 10
19.07.2017 07:00:00 19,1 15,7 40 21 47 25 ONO 1007,9 16
19.07.2017 06:00:00 19,0 15,6 46 25 43 23 ONO 1008,9 10
19.07.2017 05:00:00 19,2 15,3 44 24 47 25 ONO 1009,5 10
19.07.2017 04:00:00 19,3 15,4 44 24 43 23 ONO 1010,6 10
19.07.2017 03:00:00 19,3 15,9 41 22 40 21 ONO 1011,7 10
19.07.2017 02:00:00 19,3 16,4 39 21 - - ONO 1012,5 10
19.07.2017 01:00:00 19,5 16,1 39 21 40 21 ONO 1013,2 10
19.07.2017 00:00:00 19,7 15,7 41 22 40 21 ONO 1013,7 10
18.07.2017 23:00:00 19,9 15,6 39 21 - - NO 1014,1 10
18.07.2017 22:00:00 19,2 16,4 41 22 40 21 NO 1014,7 10
18.07.2017 21:00:00 19,1 16,3 36 19 43 23 NO 1015,2 16
18.07.2017 20:00:00 19,2 15,9 44 24 - - NO 1015,3 10
18.07.2017 19:00:00 18,8 15,7 41 22 40 21 NO 1016,3 10
18.07.2017 18:00:00 18,8 15,4 41 22 40 21 NO 1016,7 10
18.07.2017 17:00:00 18,7 15,3 39 21 - - NO 1017,1 10
18.07.2017 16:00:00 18,3 15,0 32 18 36 19 NNO 1017,9 20
18.07.2017 15:00:00 18,5 14,7 34 18 32 18 NO 1018,6 10
18.07.2017 14:00:00 18,3 14,6 29 16 - - NO 1019,4 21
18.07.2017 13:00:00 18,3 14,7 29 16 29 16 NO 1020,1 10
18.07.2017 12:00:00 18,0 14,4 24 13 25 14 ONO 1020,4 10
18.07.2017 11:00:00 17,7 14,0 24 13 25 14 ONO 1021,0 10
18.07.2017 10:00:00 17,2 14,1 24 13 25 14 ONO 1021,3 10
18.07.2017 09:00:00 17,4 14,3 22 12 22 12 ONO 1021,4 10
18.07.2017 08:00:00 17,5 13,2 24 13 25 14 ONO 1021,3 10
18.07.2017 07:00:00 17,5 14,1 24 13 22 12 ONO 1021,4 10
18.07.2017 06:00:00 17,8 12,7 21 11 18 10 ONO 1021,6 10
18.07.2017 05:00:00 17,5 14,1 16 9 18 10 ONO 1021,7 10
18.07.2017 04:00:00 17,3 13,9 18 10 18 10 NO 1022,2 10
18.07.2017 03:00:00 17,2 13,9 18 10 18 10 NO 1022,4 10
18.07.2017 02:00:00 17,3 13,5 16 9 18 10 NO 1022,7 10
18.07.2017 01:00:00 17,2 12,5 13 7 14 8 NNO 1022,8 10
18.07.2017 00:00:00 17,5 11,4 7 4 11 6 NNO 1022,9 40
17.07.2017 23:00:00 17,3 12,4 5 3 11 6 N 1023,0 10
17.07.2017 22:00:00 17,3 11,8 9 5 11 6 N 1023,1 10
17.07.2017 21:00:00 17,2 11,8 9 5 11 6 NO 1023,1 10
17.07.2017 20:00:00 17,2 11,3 11 6 11 6 ONO 1023,2 10
17.07.2017 19:00:00 17,2 11,5 8 4 7 4 ONO 1023,2 10
17.07.2017 18:00:00 17,2 11,5 5 3 7 4 NO 1023,5 10
17.07.2017 17:00:00 17,3 11,4 5 3 7 4 N 1023,9 10
17.07.2017 16:00:00 17,2 11,3 5 3 7 4 NNW 1024,0 10
17.07.2017 15:00:00 17,1 11,5 4 2 7 4 - 1024,0 10
17.07.2017 14:00:00 17,0 11,6 5 3 7 4 N 1024,3 10
17.07.2017 13:00:00 16,9 11,9 5 3 7 4 N 1024,3 10
17.07.2017 12:00:00 16,9 11,7 5 3 7 4 N 1024,2 10
17.07.2017 11:00:00 16,9 12,0 5 3 11 6 N 1024,3 10
17.07.2017 10:00:00 16,7 13,5 8 4 11 6 - 1024,0 10
17.07.2017 09:00:00 16,8 13,4 5 3 11 6 N 1024,0 10
17.07.2017 08:00:00 16,7 13,6 4 2 11 6 - 1023,6 10

tt = temperatuur
td = dauwpunt
ff = windsnelheid
fx = windstoten
dd = windrichting
ppp = luchtdruk
vv = zicht

Weerstations in de omgeving